{"data":{"norad_id":62022,"epoch":"2026-05-24T17:59:24.397152Z","epoch_age_seconds":92532,"freshness":"FRESH","line1":"1 62022U 24213Q   26144.74958793  .00008883  00000+0  31149-3 0  9990","line2":"2 62022  53.1571 162.3172 0001277  72.1387 287.9753 15.30218779 84975","mean_motion":15.30218779,"eccentricity":0.0001277,"inclination_deg":53.1571,"raan_deg":162.3172,"arg_perigee_deg":72.1387,"mean_anomaly_deg":287.9753,"bstar":0.00031149,"rev_number":8497,"period_min":94.1041908361,"perigee_km":474.28383338457,"apogee_km":476.03416518279,"semimajor_km":6853.2959992837,"source":"CELESTRAK","updated_at":"2026-05-25T13:38:19.521789Z"}}